Flag for Germany Weather past 2 weeks in Willich, North Rhine-Westphalia, Germany

Now
61 °F

Clear.


Feels Like: 61 °F
Forecast: 59 / 75 °F
Wind: 2 mph from Northwest

Location: Duesseldorf

Current Time: Sep 16, 2014 at 3:17:22 AM

Latest Report: Sep 16, 2014 at 2:50 AM


Visibility: 10 mi

Pressure: 30.01 "Hg

Humidity: 94%

Dew point: 59 °F

Location of WillichLocation

Historic Weather in Willich — Graph

°F

Willich temperature yesterday

Maximum temperature yesterday: 72 °F (at 2:20 PM)
Minimum temperature yesterday: 52 °F (at 6:50 AM)
Average temperature yesterday: 62 °F

Past Weeks' High & Low Weather Summary

 TemperatureHumidityPressure
High77 °F (Sep 5, 5:50 PM)100% (Sep 1, 4:20 AM)30.24 "Hg (Sep 1, 4:20 AM)
Low46 °F (Sep 12, 5:50 AM)46% (Sep 11, 4:50 PM)29.89 "Hg (Sep 6, 3:20 PM)
Average62 °F79%30.09 "Hg
* Reported Sep 1 2:20 AM — Sep 16 2:20 AM, Willich, Weather by CustomWeather, © 2014

Note: Actual official high and low records may vary slightly from our data, if they occured in-between our weather recording intervals... More about our weather records

Advertising

Willich weather history for previous 24 hours

 ConditionsComfort  
Time TempWeatherWind HumidityBarometerVisibility
2:20 AM
Sep 16
61 °FClear.3 mph94%30.01 "Hg10 mi
1:50 AM61 °FClear.3 mph94%30.01 "Hg10 mi
1:20 AM61 °FClear.2 mph94%30.01 "Hg10 mi
12:50 AM63 °FClear.2 mph88%30.01 "Hg10 mi
12:20 AM63 °FClear.3 mph88%30.01 "Hg10 mi
11:50 PM
Sep 15
63 °FClear.3 mph88%30.01 "Hg10 mi
11:20 PM63 °FClear.3 mph88%30.01 "Hg10 mi
10:50 PM63 °FClear.3 mph88%30.01 "Hg10 mi
10:20 PM63 °FClear.6 mph88%30.01 "Hg10 mi
9:50 PM63 °FClear.6 mph88%30.01 "Hg10 mi
9:20 PM64 °FClear.6 mph83%30.01 "Hg10 mi
8:50 PM64 °FPassing clouds.6 mph88%30.01 "HgN/A
8:20 PM64 °FPartly sunny.7 mph83%30.01 "HgN/A
7:50 PM66 °FScattered clouds.7 mph78%29.98 "HgN/A
7:20 PM68 °FBroken clouds.7 mph78%29.98 "HgN/A
6:50 PM68 °FBroken clouds.7 mph78%29.98 "HgN/A
6:20 PM70 °FPartly sunny.8 mph69%29.98 "HgN/A
5:50 PM70 °FBroken clouds.7 mph69%30.01 "HgN/A
5:20 PM72 °FScattered clouds.7 mph65%29.98 "HgN/A
4:20 PM72 °FBroken clouds.7 mph65%30.01 "HgN/A
3:50 PM72 °FPartly sunny.6 mph65%30.01 "HgN/A
3:20 PM70 °FBroken clouds.5 mph69%30.01 "HgN/A
2:50 PM70 °FScattered clouds.3 mph69%30.01 "HgN/A
2:20 PM72 °FPartly sunny.3 mph65%30.01 "HgN/A
1:50 PM70 °FPartly sunny.3 mph64%30.04 "HgN/A
1:20 PM70 °FScattered clouds.2 mph64%30.04 "HgN/A
12:50 PM68 °FScattered clouds.1 mph69%30.04 "HgN/A
12:20 PM68 °FBroken clouds.2 mph69%30.04 "HgN/A
11:50 AM66 °FPartly sunny.1 mph73%30.04 "HgN/A
11:20 AM64 °FPartly sunny.2 mph78%30.04 "HgN/A
10:20 AM61 °FSunny.3 mph83%30.04 "Hg10 mi
9:50 AM61 °FSunny.2 mph83%30.04 "Hg10 mi
9:20 AM59 °FSunny.3 mph88%30.04 "Hg10 mi
8:50 AM57 °FSunny.1 mph88%30.04 "Hg10 mi
8:20 AM54 °FFog.1 mph100%30.04 "HgN/A
7:50 AM52 °FFog.6 mph94%30.04 "HgN/A
7:20 AM52 °FFog.3 mph94%30.04 "HgN/A
6:50 AM52 °FCool.7 mph94%30.04 "HgN/A
6:20 AM54 °FCool.2 mph94%30.04 "HgN/A
5:50 AM54 °FCool.3 mph94%30.04 "HgN/A
5:20 AM55 °FFog.2 mph94%30.04 "HgN/A
4:20 AM55 °FClear.2 mph94%30.04 "Hg10 mi
3:50 AM57 °FClear.3 mph88%30.04 "Hg10 mi
3:20 AM57 °FClear.2 mph94%30.04 "Hg10 mi
Weather by CustomWeather, © 2014

See weather overviewHow to use our weather pages